WMT411 LATI-LIBD

Flight info

Callsign WMT411
Flight time 0h 33m
Altitude 18000
Route DIRES DCT PAPIZ DCT ENOXA
Aircraft A321/M-SDE1E2E3FGIJ1J4RWXY/LB1

Departure

Time 2026-04-28 12:25
Airport Tirana International Airport Mother Teresa (LATI)

Arrival

Time 2026-04-28 12:58
Airport Bari Karol Wojtyła International Airport (LIBD)
Time Latitude Longitude Altitude Speed Heading
2026-04-28 12:03 41.42182 19.71483 120 ft 0 kts 266°
2026-04-28 12:06 41.42182 19.71484 120 ft 0 kts 266°
2026-04-28 12:20 41.42182 19.71500 119 ft 4 kts 272°
2026-04-28 12:20 41.42177 19.71533 119 ft 4 kts 306°
2026-04-28 12:20 41.42158 19.71552 121 ft 3 kts 353°
2026-04-28 12:21 41.42151 19.71553 120 ft 0 kts 354°
2026-04-28 12:22 41.42170 19.71551 117 ft 8 kts 353°
2026-04-28 12:23 41.42251 19.71540 116 ft 14 kts 355°
2026-04-28 12:23 41.42355 19.71527 117 ft 16 kts 355°
2026-04-28 12:23 41.42479 19.71517 119 ft 19 kts 355°
2026-04-28 12:23 41.42611 19.71494 115 ft 19 kts 352°
2026-04-28 12:24 41.42677 19.71600 118 ft 18 kts 79°
2026-04-28 12:24 41.42695 19.71771 118 ft 19 kts 92°
2026-04-28 12:24 41.42609 19.71895 117 ft 20 kts 153°
2026-04-28 12:24 41.42453 19.71925 119 ft 38 kts 174°
2026-04-28 12:25 41.41900 19.71994 121 ft 118 kts 174°
2026-04-28 12:25 41.40881 19.72125 279 ft 163 kts 174°
2026-04-28 12:25 41.39768 19.72286 1091 ft 160 kts 178°
2026-04-28 12:25 41.38635 19.72435 1778 ft 172 kts 178°
2026-04-28 12:26 41.37367 19.72596 2309 ft 194 kts 176°
2026-04-28 12:26 41.35943 19.72780 2721 ft 217 kts 176°
2026-04-28 12:26 41.34359 19.72992 3019 ft 242 kts 175°
2026-04-28 12:26 41.32601 19.73229 3514 ft 264 kts 175°
2026-04-28 12:27 41.30751 19.73477 4369 ft 270 kts 174°
2026-04-28 12:27 41.28869 19.73727 5307 ft 273 kts 174°
2026-04-28 12:27 41.26968 19.73979 6261 ft 276 kts 175°
2026-04-28 12:27 41.25057 19.73730 7110 ft 281 kts 199°
2026-04-28 12:28 41.23394 19.72377 7978 ft 284 kts 224°
2026-04-28 12:28 41.22293 19.70206 8872 ft 287 kts 246°
2026-04-28 12:28 41.21516 19.67753 9811 ft 289 kts 246°
2026-04-28 12:28 41.20729 19.65264 10526 ft 300 kts 246°
2026-04-28 12:29 41.18987 19.59822 11387 ft 334 kts 247°
2026-04-28 12:29 41.18060 19.56947 11940 ft 347 kts 247°
2026-04-28 12:29 41.17078 19.53906 12136 ft 369 kts 247°
2026-04-28 12:30 41.16048 19.50723 12668 ft 380 kts 247°
2026-04-28 12:30 41.15000 19.47489 13411 ft 384 kts 248°
2026-04-28 12:30 41.13951 19.44257 14175 ft 388 kts 247°
2026-04-28 12:30 41.12877 19.40958 14884 ft 392 kts 248°
2026-04-28 12:31 41.11792 19.37627 15590 ft 395 kts 248°
2026-04-28 12:31 41.10699 19.34264 16306 ft 399 kts 248°
2026-04-28 12:31 41.09596 19.30873 17012 ft 403 kts 248°
2026-04-28 12:31 41.08479 19.27449 17700 ft 406 kts 248°
2026-04-28 12:32 41.07347 19.23984 18007 ft 416 kts 248°
2026-04-28 12:32 41.06398 19.20312 18093 ft 426 kts 259°
2026-04-28 12:32 41.06124 19.16410 18090 ft 427 kts 273°
2026-04-28 12:32 41.06445 19.12501 18092 ft 427 kts 278°
2026-04-28 12:33 41.06836 19.08602 18089 ft 427 kts 278°
2026-04-28 12:33 41.07228 19.04705 18089 ft 427 kts 278°
2026-04-28 12:33 41.07618 19.00802 18089 ft 427 kts 278°
2026-04-28 12:33 41.08007 18.96900 18089 ft 427 kts 278°
2026-04-28 12:34 41.08395 18.92999 18087 ft 427 kts 278°
2026-04-28 12:34 41.08781 18.89096 18090 ft 427 kts 278°
2026-04-28 12:34 41.09165 18.85195 18091 ft 427 kts 278°
2026-04-28 12:34 41.09545 18.81296 18085 ft 427 kts 278°
2026-04-28 12:35 41.09924 18.77398 18081 ft 427 kts 278°
2026-04-28 12:35 41.10306 18.73492 18081 ft 427 kts 278°
2026-04-28 12:35 41.10687 18.69594 18081 ft 427 kts 278°
2026-04-28 12:35 41.11065 18.65688 18084 ft 427 kts 278°
2026-04-28 12:36 41.11437 18.61788 18081 ft 427 kts 278°
2026-04-28 12:36 41.11803 18.57887 18080 ft 426 kts 278°
2026-04-28 12:36 41.12174 18.53986 18081 ft 426 kts 278°
2026-04-28 12:36 41.12545 18.50091 18077 ft 426 kts 278°
2026-04-28 12:37 41.12914 18.46189 18072 ft 426 kts 278°
2026-04-28 12:37 41.13281 18.42295 18071 ft 426 kts 278°
2026-04-28 12:37 41.13648 18.38395 18069 ft 426 kts 278°
2026-04-28 12:37 41.14017 18.34502 18068 ft 426 kts 278°
2026-04-28 12:38 41.14381 18.30606 18067 ft 426 kts 278°
2026-04-28 12:38 41.14743 18.26705 18067 ft 426 kts 278°
2026-04-28 12:38 41.15103 18.22809 18067 ft 426 kts 278°
2026-04-28 12:38 41.15461 18.18907 18067 ft 426 kts 277°
2026-04-28 12:39 41.15819 18.15006 18064 ft 426 kts 277°
2026-04-28 12:39 41.16177 18.11106 18069 ft 426 kts 277°
2026-04-28 12:39 41.16534 18.07196 18069 ft 426 kts 277°
2026-04-28 12:39 41.16884 18.03342 18070 ft 426 kts 277°
2026-04-28 12:40 41.17240 17.99437 18066 ft 426 kts 277°
2026-04-28 12:40 41.17594 17.95535 18066 ft 426 kts 277°
2026-04-28 12:40 41.17945 17.91630 18067 ft 426 kts 277°
2026-04-28 12:40 41.18294 17.87731 18066 ft 426 kts 277°
2026-04-28 12:41 41.18640 17.83827 18065 ft 426 kts 277°
2026-04-28 12:41 41.18983 17.79923 18066 ft 426 kts 277°
2026-04-28 12:41 41.19326 17.76016 18065 ft 426 kts 277°
2026-04-28 12:41 41.19674 17.72111 18062 ft 426 kts 277°
2026-04-28 12:42 41.19974 17.68200 18056 ft 426 kts 272°
2026-04-28 12:42 41.19718 17.64281 18057 ft 428 kts 260°
2026-04-28 12:42 41.19094 17.60416 18062 ft 429 kts 259°
2026-04-28 12:42 41.18461 17.56548 18065 ft 429 kts 259°
2026-04-28 12:43 41.17827 17.52676 18061 ft 429 kts 259°
2026-04-28 12:43 41.17195 17.48807 18063 ft 429 kts 259°
2026-04-28 12:43 41.16561 17.44934 18068 ft 429 kts 259°
2026-04-28 12:43 41.15927 17.41073 17968 ft 425 kts 259°
2026-04-28 12:44 41.15311 17.37327 17807 ft 405 kts 259°
2026-04-28 12:44 41.14721 17.33758 17675 ft 388 kts 259°
2026-04-28 12:44 41.14152 17.30333 17546 ft 372 kts 259°
2026-04-28 12:44 41.13614 17.27049 17380 ft 358 kts 259°
2026-04-28 12:45 41.13094 17.23858 16979 ft 351 kts 259°
2026-04-28 12:45 41.12580 17.20710 16473 ft 348 kts 259°
2026-04-28 12:45 41.12068 17.17587 15947 ft 345 kts 258°
2026-04-28 12:45 41.11555 17.14490 15423 ft 343 kts 258°
2026-04-28 12:46 41.11043 17.11409 14900 ft 341 kts 258°
2026-04-28 12:46 41.10531 17.08349 14409 ft 339 kts 258°
2026-04-28 12:46 41.10023 17.05314 13938 ft 336 kts 258°
2026-04-28 12:46 41.09519 17.02305 13407 ft 333 kts 258°
2026-04-28 12:47 41.09018 16.99331 13029 ft 326 kts 258°
2026-04-28 12:47 41.08529 16.96439 12776 ft 317 kts 258°
2026-04-28 12:47 41.08051 16.93621 12513 ft 309 kts 257°
2026-04-28 12:47 41.07389 16.90951 12243 ft 302 kts 251°
2026-04-28 12:48 41.06667 16.88393 11871 ft 299 kts 250°
2026-04-28 12:48 41.05940 16.85825 11455 ft 297 kts 250°
2026-04-28 12:48 41.05217 16.83271 11069 ft 295 kts 250°
2026-04-28 12:48 41.04495 16.80728 10676 ft 294 kts 250°
2026-04-28 12:49 41.03779 16.78201 10292 ft 293 kts 250°
2026-04-28 12:49 41.03069 16.75694 9998 ft 288 kts 250°
2026-04-28 12:49 41.02373 16.73237 9754 ft 281 kts 250°
2026-04-28 12:49 41.01679 16.70786 9218 ft 287 kts 250°
2026-04-28 12:50 41.00980 16.68326 8902 ft 282 kts 249°
2026-04-28 12:50 41.00297 16.65925 8391 ft 275 kts 249°
2026-04-28 12:50 40.99621 16.63556 7589 ft 273 kts 249°
2026-04-28 12:50 40.98953 16.61224 6971 ft 269 kts 248°
2026-04-28 12:51 40.98294 16.58918 6416 ft 269 kts 249°
2026-04-28 12:51 40.97629 16.56593 5838 ft 271 kts 249°
2026-04-28 12:51 40.97175 16.54189 5267 ft 270 kts 270°
2026-04-28 12:51 40.97634 16.51898 5033 ft 247 kts 300°
2026-04-28 12:52 40.98735 16.50302 4984 ft 231 kts 327°
2026-04-28 12:52 41.00189 16.49412 4927 ft 230 kts 339°
2026-04-28 12:52 41.01679 16.48666 4831 ft 230 kts 338°
2026-04-28 12:52 41.03145 16.47938 4719 ft 219 kts 339°
2026-04-28 12:53 41.04608 16.47697 4585 ft 212 kts 11°
2026-04-28 12:53 41.05888 16.48611 4302 ft 213 kts 50°
2026-04-28 12:53 41.06546 16.50351 3942 ft 211 kts 71°
2026-04-28 12:53 41.06883 16.51557 3734 ft 210 kts 71°
2026-04-28 12:54 41.07566 16.53967 3369 ft 206 kts 70°
2026-04-28 12:54 41.08070 16.55733 3091 ft 203 kts 70°
2026-04-28 12:54 41.08559 16.57446 2799 ft 194 kts 70°
2026-04-28 12:54 41.09022 16.59068 2531 ft 183 kts 70°
2026-04-28 12:55 41.09454 16.60581 2317 ft 164 kts 69°
2026-04-28 12:55 41.09831 16.61906 2102 ft 147 kts 69°
2026-04-28 12:55 41.10180 16.63129 1915 ft 138 kts 70°
2026-04-28 12:55 41.10515 16.64307 1735 ft 134 kts 69°
2026-04-28 12:56 41.10843 16.65461 1556 ft 133 kts 68°
2026-04-28 12:56 41.11167 16.66599 1383 ft 131 kts 69°
2026-04-28 12:56 41.11498 16.67764 1208 ft 132 kts 69°
2026-04-28 12:56 41.11818 16.68887 1038 ft 130 kts 72°
2026-04-28 12:57 41.12130 16.69986 864 ft 124 kts 69°
2026-04-28 12:57 41.12445 16.71085 699 ft 129 kts 70°
2026-04-28 12:57 41.12761 16.72179 529 ft 124 kts 69°
2026-04-28 12:57 41.13070 16.73266 354 ft 127 kts 70°
2026-04-28 12:58 41.13376 16.74364 213 ft 127 kts 69°
2026-04-28 12:58 41.13658 16.75370 159 ft 97 kts 69°
2026-04-28 12:58 41.13834 16.75994 144 ft 48 kts 70°
2026-04-28 12:58 41.13925 16.76318 125 ft 34 kts 69°
2026-04-28 12:59 41.13984 16.76526 122 ft 24 kts 69°
2026-04-28 12:59 41.14010 16.76685 118 ft 11 kts 115°
2026-04-28 12:59 41.13958 16.76784 117 ft 15 kts 130°
2026-04-28 12:59 41.13861 16.76782 117 ft 14 kts 210°
2026-04-28 13:00 41.13782 16.76753 123 ft 11 kts 208°
2026-04-28 13:00 41.13748 16.76677 125 ft 9 kts 249°
2026-04-28 13:00 41.13725 16.76597 126 ft 10 kts 247°
2026-04-28 13:00 41.13679 16.76540 128 ft 9 kts 208°
2026-04-28 13:01 41.13645 16.76485 133 ft 7 kts 245°
2026-04-28 13:01 41.13629 16.76432 136 ft 5 kts 249°
2026-04-28 13:01 41.13617 16.76388 138 ft 5 kts 249°
2026-04-28 13:01 41.13606 16.76350 140 ft 5 kts 250°
2026-04-28 13:02 41.13595 16.76314 141 ft 8 kts 249°
2026-04-28 13:02 41.13578 16.76251 143 ft 6 kts 250°
2026-04-28 13:02 41.13555 16.76214 144 ft 6 kts 202°
2026-04-28 13:02 41.13521 16.76224 146 ft 3 kts 159°
2026-04-28 13:03 41.13511 16.76229 146 ft 0 kts 158°
2026-04-28 13:03 41.13504 16.76233 146 ft 0 kts 159°
2026-04-28 13:03 41.13499 16.76236 146 ft 0 kts 159°